LLBG

Tel Aviv International

Airport
ICAO code
LLBG
Summary
ICAO Region
MID
ICAO Territory
Location

Lod,

Coordinates
32° 0' 41" N , 34° 53' 12" E
KCC
Metar
Observation
LLBG 032020Z 22004KT 9999 SCT022 25/21 Q1008 NOSIG
Station
Ben-Gurion International Airport
Date/Time
2022-10-03 20:20:00
Wind direction
220°
Wind speed
04 kts
Lowest cloud amount
scattered clouds
Temperature
25°C
Dew point
21°C
Humidity
78%
QNH
1008 hPa
Weather condition
n/a

Description

Ben Gurion International Airport‎, also referred to by its Hebrew acronym Natbag, is located near the city of Lod, 15 km southeast of Tel Aviv.

Climatology

Dry-summer subtropical ”Mediterranean" climate (Köppen climate classification Csa) - characterized by hot, dry summers and mild winters. During the summer, subtropical high pressure cells dominate, making rainfall unlikely except for the occasional thunderstorm. In the winter, periodic storms bring rain (snow at higher elevations).

Runways

Designator Length Width Surface Rops
3/21 1780 45 ASP Yes/Yes
12/30 3112 45 ASP Yes/Yes
8/26 3657 45 ASP Yes/Yes

Airport map

Aerial View

SKYbrary Partners:

Safety knowledge contributed by: